EHI
0 0 0 0 0 0 0 0 0 0 0 0 0 0 0 0 0 0 0 0 0 0 0 0 0 0 0 0 0 0 0 0 0 0 0 0 0 0
0 0 0 0 0 0 0 0 0 0 0 0 0 0 0 0 0 0 0 0 0 0 0 0 0 0 0 0 0 0 0 0 0 0 0 0 0 0
0 0 0 0 0 0 0 0 0 0 0 0 0 0 0 0 0 0 0 0 0 0 0 0 0 0 0 0 0 0 0 0 0 0 0 0 0 0
0 0 0 0 0 0 0 0 0 0 0 0 0 0 0 0 0 0 0 0 0 0 0 0 0 0 0 0 0 0 0 0 0 0 0 0 0 0
0 0 0 0 0 0 0 0 0 0 0 0 0 0 0 0 0 0 0 0 0 0 0 0 0 0 0 0 0 0 0 0 0 0 0 0 0 0
0 0 0 0 0 0 0 0 0 0 0 0 0 0 0 0 0 0 0 0 0 0 0 0 0 0 0 0 0 0 0 0 0 0 0 0 0 0
0 0 0 0 0 0 0 0 0 0 0 0 0 0 0 0 0 0 0 0 0 0 0 0 0 0 0 0 0 0 0 0 0 0 0 0 0 0
0 0 0 0 0 0 0 0 0 0 0 0 0 0 0 0 0 0 0 0 0 0 0 0 0 0 0 0 0 0 0 0 0 0 0 0 0 0
0 0 0 0 0 0 0 0 0 0 0 0 0 0 0 0 0 0 0 0 0 0 0 0 0 0 0 0 0 0 0 0 0 0 0 0 0 0
0 0 0 0 0 0 0 0 0 0 0 0 0 0 0 0 0 0 0 0 0 0 0 0 0 0 0 0 0 0 0 0 0 0 0 0 0 0
0 0 0 0 0 0 0 0 0 0 0 0 0 0 0 0 0 0 0 0 0 0 0 0 0 0 0 0 0 0 0 0 0 0 0 0 0 0
0 0 0 0 0 0 0 0 0 0 0 0 0 0 0 0 0 0 0 0 0 0 0 0 0 0 0 0 0 0 0 0 0 0 0 0 0 0
0 0 0 0 0 0 0 0 0 0 0 0 0 0 0 0 0 0 0 0 0 0 0 0 0 0 0 0 0 0 0 0 0 0 0 0 0 0
0 0 0 0 0 0 0 0 0 0 0 0 0 0 0 0 0 0 0 0 0 0 0 0 0 0 0 0 0 0 0 0 0 0 0 0 0 0
0 0 0 0 0 0 0 0 0 0 0 0 0 0 0 0 0 0 0 0 0 0 0 0 0 0 0 0 0 0 0 0 0 0 0 0 0 0
0 0 0 0 0 0 0 0 0 0 0 0 0 0 0 0 0 0 0 0 0 0 0 0 0 0 0 0 0 0 0 0 0 0 0 0 0 0
0 0 0 0 0 0 0 0 0 0 0 0 0 0 0 0 0 0 0 0 0 0 0 0 0 0 0 0 0 0 0 0 0 0 0 0 0 0
0 0 0 0 0 0 0 0 0 0 0 0 0 0 0 0 0 0 0 0 0 0 0 0 0 0 0 0 0 0 0 0 0 0 0 0 0 0
0 0 0 0 0 0 0 0 0 0 0 0 0 0 0 0 0 0 0 0 0 0 0 0 0 0 0 0 0 0 0 0 0 0 0 0 0 0
0 0 0 0 0 0 0 0 0 0 0 0 0 0 0 0 0 0 0 0 0 0 0 0 0 0 0 0 0 0 0 0 0 0 0 0 0 0
0 0 0 0 0 0 0 0 0 0 0 0 0 0 0 0 0 0 0 0 0 0 0 0 0 0 0 0 0 0 0 0 0 0 0 0 0 0
0 0 0 0 0 0 0 0 0 0 0 0 0 0 0 0 0 0 0 0 0 0 0 0 0 0 0 0 0 0 0 0 0 0 0 0 0 0
0 0 0 0 0 0 0 0 0 0 0 0 0 0 0 0 0 0 0 0 0 0 0 0 0 0 0 0 0 0 0 0 0 0 0 0 0 0
Wind_Speed
3 3 2 2 1 2 2 3 4 4 5 4 2 1 1 1 4 3 3 11 12 11 10 9 8 7 8 9 11 12 13 14 14 15 16 16 16 17
3 3 3 2 2 2 1 1 2 3 3 2 2 1 1 2 4 4 3 8 9 9 9 8 8 9 10 11 13 14 14 14 15 16 16 16 17 17
6 6 6 5 4 3 3 2 2 0 2 1 2 1 1 3 3 3 3 2 1 5 6 7 9 10 11 12 13 13 13 14 15 15 16 16 16 17
7 7 7 5 6 5 4 4 3 2 1 1 2 1 1 2 3 3 2 2 1 3 6 8 10 10 11 12 12 13 13 14 14 14 15 16 16 17
8 8 7 6 6 5 5 4 3 3 3 2 2 2 2 2 2 2 1 1 1 2 5 7 9 10 11 11 12 12 12 13 13 14 15 16 16 17
8 8 7 6 5 5 5 5 4 4 4 3 2 2 2 2 2 1 1 1 0 1 3 5 7 8 10 11 12 12 12 13 14 15 15 15 16 17
8 8 8 10 9 6 4 4 4 4 3 3 2 2 2 2 1 1 1 1 1 1 1 2 2 3 4 8 11 13 13 14 14 15 15 16 16 17
7 7 7 9 11 12 11 9 6 4 3 2 2 2 1 1 1 1 1 1 2 1 1 3 3 4 4 4 10 13 13 14 14 14 15 16 16 17
5 5 5 6 7 5 8 10 9 9 5 2 1 0 0 1 1 1 1 2 3 2 1 4 2 4 4 6 12 13 13 13 13 13 14 15 15 16
4 4 4 5 4 4 4 5 5 5 4 2 2 2 2 2 3 3 3 2 3 3 3 3 3 3 4 4 11 11 10 9 10 11 13 14 15 16
4 3 3 3 7 7 4 4 4 4 5 5 3 3 4 4 3 2 1 0 2 2 1 2 2 3 4 3 5 6 6 9 11 12 13 14 15 16
3 4 6 5 7 7 2 1 3 3 3 4 5 6 5 5 5 1 3 2 1 3 2 1 2 3 5 3 2 3 5 10 13 14 15 16 17 9
2 2 4 8 8 8 5 1 4 3 1 2 3 3 3 2 2 0 2 4 4 4 2 1 2 2 3 5 4 3 4 4 5 8 14 16 15 11
1 2 4 9 9 8 5 6 7 4 1 2 2 2 2 2 2 2 2 3 5 6 5 4 4 3 4 5 7 4 3 5 6 7 6 11 12 15
2 6 8 9 7 5 7 7 4 1 1 2 2 2 2 3 3 3 4 4 5 6 6 7 7 6 6 7 7 7 6 5 5 6 5 5 6 6
3 5 7 7 5 5 4 4 2 2 2 2 3 3 2 2 3 3 3 3 4 4 5 6 7 7 8 9 10 11 8 7 4 4 6 7 7 7
3 1 2 2 3 3 2 3 2 2 2 2 2 3 3 4 4 3 3 3 4 5 5 4 5 7 9 9 10 11 11 10 10 8 7 9 8 8
4 1 2 2 3 3 3 3 3 3 3 3 3 4 4 5 5 5 5 5 7 7 7 5 4 5 5 8 15 13 11 10 8 7 7 10 12 9
2 2 3 3 3 3 3 3 3 3 3 4 4 4 5 5 6 6 6 6 7 8 7 6 5 6 9 10 7 12 10 8 7 8 8 10 12 10
2 3 4 4 4 4 4 4 4 4 4 4 5 5 5 6 6 7 7 7 8 8 8 7 6 7 9 10 9 8 12 12 10 11 10 9 11 15
3 4 4 4 4 4 4 4 4 5 5 5 5 6 6 6 7 7 7 12 11 9 10 9 8 12 9 7 10 11 9 14 16 11 10 10 12 12
4 4 4 5 4 4 5 4 5 5 6 6 6 6 6 6 8 9 9 9 9 9 11 10 8 7 8 11 13 15 15 11 14 22 24 22 13 9
5 5 5 5 5 4 5 5 6 6 6 6 6 7 7 7 8 9 9 10 10 10 11 11 9 8 10 11 13 13 16 15 11 11 12 18 25 28
Wind_Direction
308 291 272 281 273 246 219 206 216 235 236 202 179 61 54 91 156 141 148 192 196 203 215 228 240 251 262 267 272 276 278 279 282 282 281 280 280 279
15 24 26 14 20 8 342 267 218 222 230 157 142 123 131 127 144 117 140 178 196 209 218 229 242 253 260 264 267 270 273 276 277 277 278 279 279 279
34 40 39 33 37 28 28 29 21 73 196 107 79 76 110 128 111 104 110 113 180 224 237 248 256 259 262 266 269 272 274 275 277 278 279 280 279 279
40 45 41 42 45 36 36 36 29 28 99 135 99 85 85 129 113 119 124 134 150 250 261 264 267 270 271 271 272 273 275 276 277 278 278 278 278 278
46 49 45 48 48 41 41 38 29 29 45 97 90 79 78 100 100 97 111 82 201 262 273 278 280 278 276 277 278 280 282 281 279 277 276 276 276 277
46 45 45 51 54 46 43 37 39 42 48 69 75 73 78 84 94 99 96 68 340 310 293 288 289 294 295 292 289 289 286 282 278 276 274 273 273 273
44 39 42 51 59 63 62 47 42 44 46 55 54 55 54 64 83 91 98 41 324 313 308 293 297 290 290 290 289 284 279 275 274 274 275 274 274 273
42 33 34 39 42 44 52 54 52 53 49 50 43 49 36 42 75 88 102 74 304 293 296 275 260 265 264 255 271 276 275 275 276 277 278 278 278 277
42 35 32 29 38 34 36 35 30 35 48 98 107 125 199 201 140 125 173 192 229 258 291 279 262 264 262 269 281 281 279 279 279 280 281 282 282 281
35 38 34 5 8 48 42 27 15 7 12 70 159 202 207 202 185 186 196 214 255 253 203 262 285 274 279 278 287 283 279 282 288 291 289 288 287 285
10 14 20 358 2 29 45 22 5 348 3 13 360 316 291 281 235 166 176 228 303 287 220 237 295 304 293 285 294 298 295 299 299 297 295 294 291 289
2 358 357 352 351 1 41 15 333 310 324 343 348 347 346 335 334 161 169 171 217 281 272 235 287 331 314 289 271 278 286 289 290 292 296 295 291 285
359 340 324 333 336 334 339 294 286 304 325 324 319 321 329 333 340 18 169 170 190 236 244 201 241 224 252 291 284 245 246 259 272 279 289 288 283 276
316 293 295 318 328 333 333 306 315 357 9 320 315 315 317 311 305 300 268 235 222 234 238 221 242 230 254 274 278 278 251 246 255 269 265 278 279 279
291 314 323 329 336 336 322 326 351 5 313 302 295 285 272 271 285 294 289 273 263 251 242 231 238 249 250 260 269 280 293 276 250 253 257 252 259 265
308 317 333 340 346 335 333 344 340 292 277 261 269 274 283 288 286 284 287 296 289 276 249 239 234 237 253 256 264 273 270 273 273 250 258 265 262 253
288 284 330 331 334 327 320 314 311 317 318 297 286 291 294 295 294 292 280 282 275 284 289 265 240 236 241 252 263 263 265 265 264 269 270 275 268 257
325 317 302 301 297 298 302 304 300 296 292 289 287 285 288 289 289 283 275 274 276 278 280 281 278 278 262 250 237 253 257 260 263 259 256 270 277 267
326 283 279 280 278 279 278 276 278 281 281 279 279 278 278 278 279 279 277 274 273 274 274 273 267 270 279 282 263 230 241 257 264 266 260 259 270 273
255 261 266 267 267 268 268 269 272 278 275 273 271 271 269 271 273 272 270 269 273 274 274 263 250 248 257 272 278 267 248 253 261 266 268 266 266 271
260 257 257 259 260 260 261 262 264 267 267 269 269 267 265 265 267 267 268 273 274 272 272 269 256 264 267 268 269 269 259 249 249 254 264 271 277 277
258 258 258 256 255 256 258 259 262 262 264 263 264 263 260 260 264 266 266 268 267 266 269 272 271 266 258 261 267 275 281 274 261 262 261 258 262 266
257 257 257 257 255 253 252 254 257 260 257 258 261 261 259 261 263 264 266 266 268 269 272 276 275 266 263 262 268 273 276 279 279 274 264 257 258 259